Location: Maiden
(35.5760°N, 81.2120°W)
Time: 03:23:56
(UTC-04:00)

H-2A R/B - Pass Details

Date: 02 August 2020
Orbit: 732 x 838 km, 98.2° (Epoch: 11 August)

Event Time Altitude Azimuth Distance (km) Brightness Sun altitude
Rises 21:15:46 0° 183° (S) 3,332 5.0 -9.7°
Reaches altitude 10° 21:18:15 10° 190° (S) 2,391 4.4 -10.1°
Maximum altitude 21:23:15 42° 261° (W) 1,118 3.3 -11.0°
Drops below altitude 10° 21:28:09 10° 332° (NNW) 2,341 5.5 -11.8°
Sets 21:30:34 0° 340° (NNW) 3,256 6.2 -12.3°
